Location: ???????
(54.9996°N, 37.9529°E)
Time: 02:22:56
(UTC+00:00)

Cosmos 2297 - Visible Passes

Search period start: 18 July 2024 00:00
Search period end: 28 July 2024 00:00
Orbit: 835 x 858 km, 71.0° (Epoch: 17 July)

Date Brightness Start Highest point End Pass type
(mag) Time Alt. Az. Time Alt. Az. Time Alt. Az.
18 Jul 5.6 00:05:21 10° W 00:09:59 24° NNW 00:14:35 10° NNE visible
18 Jul 4.8 20:24:09 17° SSE 20:27:24 29° ESE 20:32:14 10° NE visible
18 Jul 4.0 22:06:02 13° SW 22:11:10 70° NW 22:16:54 10° NNE visible
18 Jul 5.6 23:51:42 10° W 23:56:21 25° NNW 00:01:00 10° NNE visible
19 Jul 4.8 20:10:31 17° SSE 20:13:50 28° ESE 20:18:36 10° NE visible
19 Jul 3.9 21:52:23 13° SW 21:57:34 71° NW 22:03:17 10° NNE visible
19 Jul 5.6 23:38:03 10° W 23:42:44 25° NNW 23:47:23 10° NNE visible
20 Jul 4.8 19:56:48 16° SSE 20:00:14 28° ESE 20:04:59 10° NE visible
20 Jul 3.9 21:38:40 12° SW 21:43:57 72° NW 21:49:42 10° NNE visible
20 Jul 5.6 23:24:25 10° W 23:29:06 25° NNW 23:33:47 10° NNE visible
21 Jul 4.8 19:43:02 15° SSE 19:46:39 27° ESE 19:51:22 10° NE visible
21 Jul 3.9 21:24:54 11° SW 21:30:21 73° NW 21:36:05 10° NNE visible
21 Jul 5.6 23:10:46 10° W 23:15:28 25° NNW 23:20:10 10° NNE visible
22 Jul 4.8 19:29:12 13° SSE 19:33:04 26° ESE 19:37:44 10° NE visible
22 Jul 3.9 21:11:03 10° SW 21:16:45 75° NW 21:22:29 10° NNE visible
22 Jul 5.7 22:57:08 10° W 23:01:51 26° NNW 23:06:35 10° NNE visible
23 Jul 4.8 19:15:15 12° SSE 19:19:29 26° ESE 19:24:07 10° NE visible
23 Jul 3.9 20:57:25 10° SW 21:03:09 76° NW 21:08:53 10° NNE visible
23 Jul 5.7 22:43:29 10° W 22:48:14 26° NNW 22:52:58 10° NNE visible
24 Jul 6.3 00:30:59 10° NW 00:34:27 16° N 00:37:54 10° NNE visible
24 Jul 4.8 19:01:19 10° SSE 19:05:54 25° ESE 19:10:29 10° NE visible
24 Jul 3.9 20:43:48 10° SW 20:49:32 77° NW 20:55:17 10° NNE visible
24 Jul 5.7 22:29:51 10° W 22:34:37 26° NNW 22:39:22 10° NNE visible
25 Jul 6.3 00:17:20 10° NW 00:20:49 16° N 00:24:17 10° NNE visible
25 Jul 4.8 18:47:46 10° SSE 18:52:19 25° ESE 18:56:51 10° NE visible
25 Jul 3.8 20:30:12 10° SW 20:35:56 79° NW 20:41:41 10° NNE visible
25 Jul 5.7 22:16:12 10° W 22:21:00 26° NNW 22:25:46 10° NNE visible
26 Jul 6.3 00:03:42 10° NW 00:07:11 16° N 00:10:39 10° NNE visible
26 Jul 4.8 18:34:14 10° SSE 18:38:44 24° ESE 18:43:14 10° NE visible
26 Jul 3.8 20:16:36 10° SW 20:22:20 80° NW 20:28:04 10° NNE visible
26 Jul 5.7 22:02:34 10° W 22:07:22 27° NNW 22:12:09 10° NNE visible
26 Jul 6.3 23:50:04 10° NW 23:53:33 16° N 23:57:01 10° NNE visible
27 Jul 4.8 18:20:42 10° SSE 18:25:09 24° ESE 18:29:36 10° NE visible
27 Jul 3.8 20:02:59 10° SW 20:08:44 81° NW 20:14:28 10° NNE visible
27 Jul 5.7 21:48:55 10° W 21:53:45 27° NNW 21:58:33 10° NNE visible
27 Jul 6.4 23:36:25 10° NW 23:39:55 16° N 23:43:23 10° NNE visible
